Retour au catalogue

STARLINK-36569

ActifCommunicationsSSO
NORAD 67553·PAYLOAD·🇺🇸 United States

Lancé Jan 22, 2026 depuis Vandenberg Space Force Base

Loading…

Prochains Passages (prochaines 24 heures)

TLE

FraisSource: CelesTrak SupGP

Époque: Sep 15, 2026, 03:30 UTC

1 67553C 26014X   26258.14631944  .00061869  00000+0  19196-2 0  2589
2 67553  97.2850 143.6187 0001770  99.8873 120.6041 15.33423222    10

Suivez STARLINK-36569 en temps réel avec AllMySat

Download on the App Store